Location: Libas
(9.8833°N, 125.9833°E)
Time: 21:59:45
(UTC+00:00)

Cosmos 407 Rocket - Pass Details

Date: 27 October 2020
Orbit: 743 x 787 km, 74.1° (Epoch: 25 November)

Event Time Altitude Azimuth Distance (km) Brightness Sun altitude
Rises 20:13:43 0° 186° (S) 3,177 6.8 -18.2°
Reaches altitude 10° 20:16:05 10° 183° (S) 2,251 6.0 -17.6°
Maximum altitude 20:21:07 63° 102° (ESE) 822 3.9 -16.4°
Drops below altitude 10° 20:26:09 10° 21° (NNE) 2,248 6.0 -15.2°
Sets 20:28:31 0° 18° (NNE) 3,174 6.8 -14.6°
